This demonstration page uses our WeatherBlox Daily Observations layout. Learn more.

Left ArrowRight Arrow

40.92945, -100.16068

Hourly Observations for October 7, 2020

Temp ( °F °C ) Dew Point ( °F °C ) Humidity (%) Winds ( mph kmh ) Pressure ( in mb ) Visibility ( mi km ) Precip ( " mm )
12:15 am 00:15 Clear 48 9 37 2.5 64 64 WSW 3 6 29.97 1015 7 11 N/A
12:35 am 00:35 Clear 47 8.5 37 2.7 67 67 N N/A 29.99 1015 7 11 N/A
12:55 am 00:55 Clear 47 8.6 39 3.8 72 72 NNW 7 11 29.97 1015 7 11 N/A
1:15 am 01:15 Clear 47 8.6 39 4 73 73 NW 5 7 29.97 1015 7 11 N/A
1:35 am 01:35 Clear 46 8 38 3.1 71 71 WSW 5 7 29.98 1015 7 11 N/A
1:55 am 01:55 Clear 48 8.8 39 3.8 71 71 WNW 6 9 29.97 1015 7 11 N/A
2:15 am 02:15 Clear 46 8 37 3 71 71 W 8 13 29.98 1015 7 11 N/A
2:35 am 02:35 Clear 47 8.4 38 3.5 72 72 W 5 7 29.98 1015 7 11 N/A
2:55 am 02:55 Clear 47 8.1 38 3.2 71 71 WNW 6 9 29.98 1015 7 11 N/A
3:15 am 03:15 Clear 47 8.1 38 3.1 71 71 NW 3 6 29.98 1015 10 16 N/A
3:35 am 03:35 Clear 46 7.8 37 2.9 71 71 NNW 3 6 29.98 1015 7 11 N/A
3:55 am 03:55 Clear 46 7.9 37 2.7 70 70 N N/A 29.98 1015 7 11 N/A
4:15 am 04:15 Clear 45 7.3 35 1.9 69 69 W 3 6 29.99 1015 10 16 N/A
4:35 am 04:35 Clear 45 7 36 2.4 73 73 WNW 5 7 29.99 1016 10 16 N/A
4:55 am 04:55 Clear 45 7.1 37 2.5 73 73 WNW 5 7 29.99 1016 10 16 N/A
5:15 am 05:15 Clear 44 6.8 36 2.1 72 72 WNW 8 13 29.99 1016 10 16 N/A
5:35 am 05:35 Clear 45 7.2 36 2.2 71 71 WNW 5 7 30.00 1016 10 16 N/A
5:55 am 05:55 Clear 45 7 36 2.3 72 72 WNW 3 6 30.00 1016 10 16 N/A
6:15 am 06:15 Clear 45 7.4 36 2.3 70 70 W 3 6 30.00 1016 10 16 N/A
6:35 am 06:35 Clear 44 6.6 35 1.9 72 72 N N/A 30.00 1016 10 16 N/A
6:55 am 06:55 Clear 43 5.9 35 1.6 74 74 N N/A 30.01 1016 10 16 N/A
7:15 am 07:15 Clear 42 5.5 35 1.7 77 77 W 3 6 30.02 1017 7 11 N/A
7:35 am 07:35 Clear 41 5.1 36 2 81 81 N 6 9 30.04 1017 7 11 N/A
7:55 am 07:55 Hazy 42 5.3 35 1.7 78 78 NW 7 11 30.04 1017 4 6 N/A
8:15 am 08:15 Hazy 43 5.9 36 2 76 76 WNW 6 9 30.04 1017 5 8 N/A
8:35 am 08:35 Hazy 46 7.7 37 2.7 71 71 W 5 7 30.02 1017 5 8 N/A
8:55 am 08:55 Sunny 51 10.4 36 2.2 57 57 WNW 9 15 30.00 1016 7 11 N/A
9:15 am 09:15 Sunny 53 11.8 35 1.8 51 51 WNW 9 15 29.99 1016 7 11 N/A
9:35 am 09:35 Sunny 56 13.2 37 3 50 50 NW 7 11 29.98 1015 10 16 N/A
9:55 am 09:55 Sunny 59 14.8 37 2.6 44 44 NW 12 19 29.98 1015 7 11 N/A
10:15 am 10:15 Sunny 61 16.1 38 3.1 42 42 WNW 7 11 29.97 1015 7 11 N/A
10:35 am 10:35 Sunny 65 18.3 37 2.6 35 35 NW 8 13 29.96 1014 7 11 N/A
10:55 am 10:55 Sunny 69 20.5 35 1.6 29 29 NNW 6 9 29.94 1014 10 16 N/A
11:15 am 11:15 Sunny 71 21.7 37 2.6 29 29 NNW 5 7 29.94 1014 10 16 N/A
11:35 am 11:35 Sunny 74 23.5 34 1 23 23 NE 10 17 29.92 1013 10 16 N/A
11:55 am 11:55 Sunny 75 24 34 1.3 23 23 ENE 9 15 29.92 1013 10 16 N/A
12:15 pm 12:15 Sunny 77 25.1 36 2.1 22 22 ENE 12 19 29.91 1013 10 16 N/A
12:55 pm 12:55 Sunny 78 25.8 38 3.6 24 24 ENE 13 20 29.91 1013 10 16 N/A
1:15 pm 13:15 Sunny 79 25.9 40 4.3 25 25 NE 12 19 29.91 1013 10 16 N/A
1:35 pm 13:35 Sunny 79 26.3 41 5 26 26 NE 13 20 29.91 1013 10 16 N/A
1:55 pm 13:55 Sunny 80 26.5 41 5 25 25 ENE 15 24 29.90 1012 10 16 N/A
2:15 pm 14:15 Sunny 81 27.1 42 5.3 25 25 E 13 20 29.89 1012 10 16 N/A
2:35 pm 14:35 Sunny 82 27.5 41 5.1 24 24 E 14 22 29.88 1012 10 16 N/A
2:55 pm 14:55 Sunny 82 27.8 42 5.4 24 24 E 14 22 29.87 1011 10 16 N/A
3:15 pm 15:15 Sunny 82 28 40 4.7 23 23 E 13 20 29.87 1011 10 16 N/A
3:35 pm 15:35 Sunny 82 27.8 41 4.9 23 23 E 14 22 29.87 1011 10 16 N/A
3:55 pm 15:55 Sunny 82 27.8 41 5.2 24 24 ENE 13 20 29.87 1011 10 16 N/A
4:15 pm 16:15 Sunny 82 27.7 42 5.4 24 24 E 13 20 29.87 1011 10 16 N/A
4:35 pm 16:35 Sunny 82 27.9 42 5.4 24 24 E 12 19 29.87 1011 10 16 N/A
4:55 pm 16:55 Sunny 81 27.4 41 5.1 24 24 E 15 24 29.88 1012 10 16 N/A
5:15 pm 17:15 Sunny 81 27.2 41 5.1 24 24 E 14 22 29.87 1012 10 16 N/A
5:35 pm 17:35 Sunny 80 26.7 42 5.5 26 26 E 13 20 29.88 1012 10 16 N/A
5:55 pm 17:55 Sunny 79 26.1 43 6 28 28 E 12 19 29.88 1012 10 16 N/A
6:15 pm 18:15 Sunny 78 25.3 43 6.1 29 29 ENE 10 17 29.90 1012 10 16 N/A
6:35 pm 18:35 Sunny 75 24 44 6.7 33 33 ENE 10 17 29.91 1013 10 16 N/A
6:55 pm 18:55 Sunny 73 22.6 44 6.7 36 36 ENE 10 17 29.92 1013 10 16 N/A
7:15 pm 19:15 Clear 70 21.3 44 6.7 39 39 ENE 9 15 29.94 1014 10 16 N/A
7:35 pm 19:35 Clear 68 20.2 44 6.6 41 41 ENE 7 11 29.95 1014 10 16 N/A
7:55 pm 19:55 Clear 67 19.5 44 6.5 43 43 ENE 9 15 29.97 1015 10 16 N/A
8:15 pm 20:15 Clear 67 19.5 44 6.5 43 43 ENE 10 17 29.98 1015 7 11 N/A
8:35 pm 20:35 Hazy 65 18.5 43 6.3 45 45 ENE 9 15 29.98 1015 5 8 N/A
8:55 pm 20:55 Clear 65 18.5 42 5.8 44 44 ENE 10 17 29.98 1015 10 16 N/A
9:15 pm 21:15 Clear 64 18 41 5.2 43 43 ENE 10 17 29.99 1016 10 16 N/A
9:35 pm 21:35 Clear 64 18 41 4.9 42 42 ENE 12 19 30.00 1016 10 16 N/A
9:55 pm 21:55 Clear 64 17.5 40 4.7 43 43 ENE 10 17 30.00 1016 10 16 N/A
10:15 pm 22:15 Clear 63 17 40 4.7 44 44 ENE 9 15 30.02 1017 10 16 N/A
10:35 pm 22:35 Clear 62 16.7 40 4.7 45 45 E 10 17 30.02 1017 10 16 N/A
10:55 pm 22:55 Clear 61 16.1 41 4.8 47 47 ENE 9 15 30.03 1017 10 16 N/A
11:15 pm 23:15 Clear 60 15.5 41 4.8 49 49 ENE 9 15 30.03 1017 10 16 N/A
11:35 pm 23:35 Clear 60 15.3 41 4.9 50 50 ENE 9 15 30.04 1017 10 16 N/A
11:55 pm 23:55 Clear 59 14.9 40 4.7 51 51 E 9 15 30.05 1017 10 16 N/A

Powered by AerisWeather